Waarnemingen

Advertentie
Mijn weer
Eskilstuna, Zweden (2449): temperatuur & dauwpunt: 20.05.2019 15:00:00 - 26.05.2019 15:00:00 (CEST)Eskilstuna, Zweden (2449): windsnelheid & windstoten: 20.05.2019 15:00:00 - 26.05.2019 15:00:00 (CEST)Eskilstuna, Zweden (2449): windrichting: 20.05.2019 15:00:00 - 26.05.2019 15:00:00 (CEST)Eskilstuna, Zweden (2449): luchtdruk: 20.05.2019 15:00:00 - 26.05.2019 15:00:00 (CEST)Eskilstuna, Zweden (2449): zicht: 20.05.2019 15:00:00 - 26.05.2019 15:00:00 (CEST)Eskilstuna, Zweden (2449): neerslag: 20.05.2019 15:00:00 - 26.05.2019 15:00:00 (CEST)
Datum & Tijd tt [°C] td [°C] ff [km/u] ff [kn] fx [km/u] fx [kn] dd ppp [hPa] vv [km] rr [mm]
26.05.2019 15:00:00 10,1 6,3 31 17 56 30 W 994,0 6 0,9
26.05.2019 14:00:00 13,9 5,8 26 14 45 24 W 993,2 37 0,0
26.05.2019 13:00:00 13,0 5,2 34 18 58 31 W 993,2 45 0,0
26.05.2019 12:00:00 12,5 7,2 27 14 56 31 WZW 993,0 43 0,0
26.05.2019 11:00:00 11,8 9,0 19 10 34 19 WZW 993,2 38 0,2
26.05.2019 10:00:00 10,0 7,8 12 6 29 16 ZW 993,5 22 1,4
26.05.2019 09:00:00 9,7 7,5 13 7 32 17 ZW 994,0 7 1,9
26.05.2019 08:00:00 9,9 7,5 9 5 20 11 ZW 994,9 11 0,8
26.05.2019 07:00:00 9,7 7,1 8 4 28 15 ZW 996,0 15 0,3
26.05.2019 06:00:00 10,0 6,0 6 3 18 10 ZZW 997,1 39 0,0
26.05.2019 05:00:00 9,8 5,4 5 3 14 8 ZZW 998,2 46 0,0
26.05.2019 04:00:00 9,8 6,0 5 3 16 8 ZW 999,1 43 0,0
26.05.2019 03:00:00 9,8 6,0 5 3 12 6 ZW 1000,3 50 0,0
26.05.2019 02:00:00 9,6 5,6 3 2 24 13 ZW 1001,3 43 0,0
26.05.2019 01:00:00 11,0 7,1 13 7 25 14 WZW 1002,2 50 0,0
26.05.2019 00:00:00 11,5 8,9 0 0 14 8 N 1002,9 33 0,5
25.05.2019 23:00:00 11,9 8,6 3 2 12 7 ZW 1003,6 25 0,2
25.05.2019 22:00:00 12,4 8,7 13 7 23 13 W 1003,9 28 0,2
25.05.2019 21:00:00 13,6 6,2 0 0 7 4 N 1004,0 50 0,0
25.05.2019 20:00:00 14,4 7,0 2 1 6 3 ZO 1004,5 50 0,0
25.05.2019 19:00:00 14,0 8,6 3 1 16 9 OZO 1004,9 41 0,0
25.05.2019 18:00:00 16,0 7,0 8 4 16 9 W 1005,4 44 0,0
25.05.2019 17:00:00 17,3 6,5 6 4 11 6 WZW 1005,7 43 0,0
25.05.2019 16:00:00 15,7 5,9 5 3 11 6 O 1006,0 21 0,0
25.05.2019 15:00:00 15,1 6,1 6 3 13 7 ONO 1006,4 18 0,0
25.05.2019 14:00:00 14,0 6,6 9 5 18 10 N 1006,5 48 0,0
25.05.2019 13:00:00 13,2 7,2 10 5 21 12 NNW 1006,5 46 0,0
25.05.2019 12:00:00 12,3 7,4 14 8 26 14 NNW 1006,4 50 0,0
25.05.2019 11:00:00 12,0 7,9 17 9 29 16 NNW 1005,9 41 0,0
25.05.2019 10:00:00 11,8 7,7 14 8 24 13 NNW 1005,0 46 0,0
25.05.2019 09:00:00 11,9 8,0 14 7 21 11 NW 1004,5 46 0,0
25.05.2019 08:00:00 11,1 7,4 9 5 23 13 NW 1004,1 50 0,0
25.05.2019 07:00:00 10,3 7,4 11 6 20 11 NNW 1003,7 47 0,0
25.05.2019 06:00:00 9,6 7,4 14 8 25 14 NW 1003,2 50 0,0
25.05.2019 05:00:00 8,6 6,7 9 5 12 7 W 1002,4 34 0,1
25.05.2019 04:00:00 9,0 6,4 0 0 13 7 N 1002,0 7 0,2
25.05.2019 03:00:00 8,8 6,9 10 5 16 9 WZW 1002,0 50 0,0
25.05.2019 02:00:00 9,1 7,1 12 6 16 9 WZW 1002,1 50 0,0
25.05.2019 01:00:00 9,1 6,9 5 3 14 8 ZW 1002,3 38 0,1
25.05.2019 00:00:00 9,2 6,8 3 2 13 7 ZZW 1002,6 15 1,2
24.05.2019 23:00:00 9,5 7,1 5 3 16 8 ZW 1002,5 15 0,4
24.05.2019 22:00:00 9,8 7,2 2 1 11 6 ZW 1002,7 50 0,0
24.05.2019 21:00:00 9,9 7,1 3 2 10 5 ZZW 1002,7 50 0,4
24.05.2019 20:00:00 10,3 7,4 6 3 11 6 ZZW 1003,0 50 0,4
24.05.2019 19:00:00 10,1 7,3 6 3 39 21 WZW 1003,3 15 0,7
24.05.2019 18:00:00 13,2 6,3 6 3 18 10 Z 1003,6 50 0,0
24.05.2019 17:00:00 12,6 6,2 10 5 25 14 ZZW 1004,7 50 0,0
24.05.2019 16:00:00 12,0 8,7 13 7 29 16 WZW 1005,6 28 0,2
24.05.2019 15:00:00 11,9 8,6 16 9 34 19 WZW 1005,9 17 0,0
24.05.2019 14:00:00 13,1 7,8 22 12 43 23 W 1005,8 21 0,0
24.05.2019 13:00:00 17,1 5,4 18 10 29 15 WZW 1005,4 37 0,0
24.05.2019 12:00:00 17,3 3,6 10 6 25 14 ZW 1005,9 29 0,0
24.05.2019 11:00:00 18,2 4,4 8 4 17 9 Z 1006,2 22 0,0
24.05.2019 10:00:00 16,2 6,3 8 4 19 10 ZZW 1006,8 21 0,0
24.05.2019 09:00:00 15,3 7,8 7 4 19 10 ZZW 1007,6 18 0,0
24.05.2019 08:00:00 14,4 7,7 6 3 16 8 Z 1008,0 24 0,0
24.05.2019 07:00:00 12,8 6,8 4 2 11 6 Z 1008,6 14 0,0
24.05.2019 06:00:00 9,6 5,8 0 0 4 2 N 1009,0 39 0,0
24.05.2019 05:00:00 6,0 3,2 0 0 3 2 N 1009,5 3,8 0,0
24.05.2019 04:00:00 6,2 3,7 0 0 5 3 N 1009,9 14 0,0
24.05.2019 03:00:00 6,7 3,8 0 0 4 2 N 1010,3 19 0,0
24.05.2019 02:00:00 7,7 4,8 0 0 3 2 N 1010,8 49 0,0
24.05.2019 01:00:00 7,6 4,7 0 0 5 3 N 1011,1 46 0,0
24.05.2019 00:00:00 8,3 5,4 4 2 6 4 WZW 1011,5 50 0,0
23.05.2019 23:00:00 9,2 5,4 0 0 8 4 N 1011,6 50 0,0
23.05.2019 22:00:00 12,7 5,6 6 3 15 8 WZW 1011,5 50 0,0
23.05.2019 21:00:00 14,5 6,1 7 4 19 11 WZW 1011,4 50 0,0
23.05.2019 20:00:00 15,6 6,1 6 3 26 14 ZW 1011,3 42 0,0
23.05.2019 19:00:00 16,1 6,5 19 10 32 18 WZW 1011,2 47 0,0
23.05.2019 18:00:00 16,9 7,5 21 12 32 18 WZW 1011,3 36 0,0
23.05.2019 17:00:00 17,2 7,0 19 10 32 17 WZW 1011,3 35 0,0
23.05.2019 16:00:00 17,6 7,9 17 9 28 15 WZW 1011,4 24 0,0
23.05.2019 15:00:00 16,8 8,7 18 10 28 15 WZW 1011,8 19 0,0
23.05.2019 14:00:00 15,5 9,8 16 9 26 14 W 1012,2 39 0,0
23.05.2019 13:00:00 14,1 10,1 16 9 26 14 W 1012,1 34 0,0
23.05.2019 12:00:00 11,8 9,7 11 6 19 10 WZW 1012,2 20 0,1
23.05.2019 11:00:00 11,4 9,1 9 5 18 10 W 1011,9 18 0,7
23.05.2019 10:00:00 11,1 9,2 12 6 22 12 W 1011,8 10 1,2
23.05.2019 09:00:00 11,3 9,4 12 7 21 11 W 1011,6 12 1,4
23.05.2019 08:00:00 11,2 9,6 14 7 22 12 WZW 1011,4 7 -
23.05.2019 07:00:00 11,6 10,0 21 12 32 18 W 1011,0 4,7 2,5
23.05.2019 06:00:00 13,5 11,7 11 6 17 9 WZW 1010,2 6 0,4
23.05.2019 05:00:00 13,6 10,0 4 2 9 5 WZW 1010,2 26 0,0
23.05.2019 04:00:00 13,3 8,8 0 0 4 2 N 1010,2 38 0,0
23.05.2019 03:00:00 13,0 7,9 0 0 7 4 N 1010,3 44 0,0
23.05.2019 02:00:00 13,9 7,9 4 2 14 8 O 1010,0 50 0,0
23.05.2019 01:00:00 13,8 7,8 7 4 13 7 O 1010,1 47 0,0
23.05.2019 00:00:00 16,0 8,2 9 5 16 8 ONO 1010,1 27 0,0
22.05.2019 23:00:00 17,5 8,8 4 2 11 6 NO 1010,6 29 0,0
22.05.2019 22:00:00 18,9 9,5 10 5 16 9 O 1010,6 12 0,0
22.05.2019 21:00:00 19,7 9,9 14 7 28 15 O 1010,0 11 0,0
22.05.2019 20:00:00 21,7 11,1 16 9 28 15 O 1008,9 36 0,0
22.05.2019 19:00:00 23,4 12,4 17 9 30 16 ONO 1008,7 15 0,0
22.05.2019 18:00:00 24,6 12,2 15 8 22 12 ONO 1008,5 15 0,0
22.05.2019 17:00:00 25,2 12,1 11 6 22 12 ONO 1008,9 14 0,0
22.05.2019 16:00:00 25,2 12,8 10 5 23 13 ONO 1009,4 17 0,0
22.05.2019 15:00:00 24,6 12,2 11 6 21 11 NO 1009,9 14 0,0
22.05.2019 14:00:00 23,6 12,3 9 5 18 10 NO 1010,3 30 0,0
22.05.2019 13:00:00 22,4 11,8 11 6 21 12 O 1010,7 27 0,0
22.05.2019 12:00:00 21,6 11,9 9 5 18 10 ONO 1010,8 17 0,0
22.05.2019 11:00:00 19,8 11,0 9 5 21 11 NO 1011,1 14 0,0
22.05.2019 10:00:00 18,3 10,4 9 5 22 12 NO 1011,0 29 0,0
22.05.2019 09:00:00 16,7 10,1 13 7 21 11 ONO 1011,0 18 0,0
22.05.2019 08:00:00 15,0 9,4 12 6 23 12 ONO 1010,9 22 0,0
22.05.2019 07:00:00 14,7 9,5 7 4 18 10 NO 1011,0 28 0,0
22.05.2019 06:00:00 13,6 9,6 9 5 13 7 ONO 1010,9 35 0,0
22.05.2019 05:00:00 13,3 9,9 6 3 10 6 NO 1010,7 26 0,0
22.05.2019 04:00:00 13,5 10,1 4 2 6 4 ONO 1010,7 27 0,0
22.05.2019 03:00:00 12,8 9,8 0 0 3 2 N 1010,7 6 0,0
22.05.2019 02:00:00 12,6 8,7 0 0 5 3 N 1010,8 14 0,0
22.05.2019 01:00:00 15,5 10,3 4 2 7 4 ONO 1011,1 17 0,0
22.05.2019 00:00:00 16,5 10,6 6 3 13 7 O 1011,1 12 0,0
21.05.2019 23:00:00 17,2 10,8 7 4 12 6 O 1010,9 15 0,0
21.05.2019 22:00:00 19,3 11,3 4 2 18 10 O 1010,6 33 0,0
21.05.2019 21:00:00 21,8 11,8 9 5 24 13 OZO 1009,9 40 0,0
21.05.2019 20:00:00 22,7 12,9 14 7 29 15 O 1009,7 36 0,0
21.05.2019 19:00:00 23,9 12,8 16 9 27 15 O 1009,5 31 0,0
21.05.2019 18:00:00 24,6 13,2 14 8 28 15 O 1009,4 30 0,0
21.05.2019 17:00:00 24,6 12,5 10 5 16 9 O 1009,7 20 0,0
21.05.2019 16:00:00 23,6 12,3 6 3 15 8 OZO 1010,1 24 0,0
21.05.2019 15:00:00 23,1 11,8 9 5 21 12 O 1010,2 29 0,0
21.05.2019 14:00:00 23,5 12,5 11 6 22 12 O 1010,3 18 0,0
21.05.2019 13:00:00 22,9 11,6 13 7 23 12 ONO 1010,4 24 0,0
21.05.2019 12:00:00 21,7 11,4 10 6 22 12 ONO 1010,7 25 0,0
21.05.2019 11:00:00 20,5 12,0 11 6 22 12 ONO 1010,9 17 0,0
21.05.2019 10:00:00 18,4 11,0 12 6 20 11 NO 1010,9 25 0,0
21.05.2019 09:00:00 16,8 11,1 11 6 21 12 ONO 1011,0 16 0,0
21.05.2019 08:00:00 14,0 10,2 8 4 12 7 NNO 1010,8 32 0,0
21.05.2019 07:00:00 13,7 9,7 8 4 15 8 NNO 1010,6 32 0,0
21.05.2019 06:00:00 13,2 9,8 7 4 14 8 NO 1010,5 36 0,0
21.05.2019 05:00:00 12,9 9,9 5 3 12 6 NO 1010,4 26 0,0
21.05.2019 04:00:00 13,2 10,4 5 3 9 5 NNO 1010,4 16 0,0
21.05.2019 03:00:00 12,9 10,4 2 1 5 3 NO 1010,7 2,5 0,0
21.05.2019 02:00:00 12,5 10,6 3 1 5 3 NO 1010,7 - 0,0
21.05.2019 01:00:00 11,4 8,4 0 0 3 1 N 1011,1 - 0,0
21.05.2019 00:00:00 11,7 7,6 0 0 8 5 N 1011,0 - 0,0
20.05.2019 23:00:00 14,4 11,2 0 0 6 3 N 1010,9 13 0,0
20.05.2019 22:00:00 18,3 11,8 3 2 13 7 OZO 1010,7 30 0,0
20.05.2019 21:00:00 20,2 12,7 4 2 15 8 ZO 1010,5 30 0,0
20.05.2019 20:00:00 21,9 13,0 9 5 19 11 OZO 1009,7 23 0,0
20.05.2019 19:00:00 22,7 12,9 11 6 21 11 OZO 1009,4 17 0,0
20.05.2019 18:00:00 23,6 12,6 6 4 22 12 ZO 1009,7 16 0,0
20.05.2019 17:00:00 23,5 12,8 6 3 18 10 ZZO 1009,8 12 0,0
20.05.2019 16:00:00 24,0 12,9 6 3 18 10 ZO 1009,9 16 0,0
20.05.2019 15:00:00 23,5 12,5 8 4 22 12 OZO 1010,1 13 0,0

tt = temperatuur
td = dauwpunt
ff = windsnelheid
fx = windstoten
dd = windrichting
ppp = luchtdruk
vv = zicht
rr = neerslag

Weerstations in de omgeving